STARLINK-1067, 44771

Orbit data source: Space-Track

STARLINK-1067, 44771 is a payload satellite owned by SpaceX/Seattle (US) in LEO that was launched on Mon, 11 Nov 2019 UTC via an FALCON 9 launch vehicle from the Air Force Eastern Test Range (AFETR). Payload-class satellites include a variety of spacecraft equipped with specific instruments for various scientific and technological missions. These include communications satellites like Starlink; space stations such as the ISS; scientific satellites like the Hubble; Earth observation satellites from companies like Planet Labs, Umbra, and HawkEye 360; GPS; miniature CubeSats for education and research; and military/defense satellites.

Loading next visibility...
Identifier
44771, 2019-074BL
Orbit
LEO
Country
Flag of USUS
Related business
Manufacturer
SpaceX/Seattle
Mission
Partially operational Commercial Communications
Bus & Motor
STARLINK, Unknown motor
Mass
260 kg wet, ~248 kg dry
Launch date (UTC)
2019-11-11 (6 years ago)
Launch vehicle
FALCON 9
Launch site
Air Force Eastern Test Range (AFETR)
Object type
Payload
Rocket body
Debris
Shape & HBR
Box + 1 Pan, 10.1 m
Radar Cross Section
13.562 m², Large (>1 m²)

Expand to show TLE details & history
Last TLE update: 15 hours ago

TLE from 15 hours ago
0 STARLINK-1067
1 44771U 19074BL  26107.16811166  .00069571  00000-0  69166-3 0  9999
2 44771  53.0490  16.4029 0006274 121.8191 238.3435 15.65099072354521
Epoch: 2026-04-17T04:02Z
TLE epoch observation values (Epoch: 2026-04-17T04:02:04.847Z)
Latitude
-0.00002°
Longitude
110.57751°
Altitude
376.08 km
Speed
7.684 km/s
True Right ascension
01h 05m 36s
True Declination
0° 00' 00"
Sunlit
Object was in daylight at epoch
Visualization orbit readout
Latitude
Unknown
Longitude
Unknown
Altitude
Unknown
Speed
Unknown
Apparent Right ascension
Unknown
Apparent Declination
Unknown
Sunlit
N/A
Visualization observer readout
Local Sidereal Time
01:53:05
Azimuth
Unknown
Elevation
Unknown
Doppler factor
Unknown
Orbital elements
Apogee altitude
377.468 km
Perigee altitude
368.996 km
Semi-major axis
6,751.369 km
Eccentricity
0.00063
Inclination
53.049°
RAAN
16.4029°
Arg. of periapsis
121.8191°
True anomaly
238.28233°
Mean anomaly
238.3435°
Eccentric anomaly
238.31291°
Mean motion
3.91251 °/min
Orbital period
92.01 mins
BSTAR
0.00069166
Loading maneuver chart data...
Computing Atmospheric mass density...

Documentation

Showing up to 5 results
|